This is the latest recevied weather packets stored in our database for station/object KI5NXU. If no packets are shown the sender has not sent any weather packets the latest 10 day(s).
| Time | Temp. | Humidity | Pressure | Rain* | Wind** | Luminosity | Snow |
|---|---|---|---|---|---|---|---|
| 1788211881 | 38.89° C | 28% | 1013.6 hPa | 0 mm | - | 331 W/m² | - |
| 1788211577 | 39.44° C | 28% | 1013.7 hPa | 0 mm | - | 200 W/m² | - |
| 1788211273 | 39.44° C | 28% | 1013.8 hPa | 0 mm | - | 567 W/m² | - |
| 1788210972 | 39.44° C | 28% | 1013.9 hPa | 0 mm | - | 611 W/m² | - |
| 1788210672 | 40° C | 26% | 1013.9 hPa | 0 mm | - | 635 W/m² | - |
| 1788210386 | 39.44° C | 27% | 1014 hPa | 0 mm | - | 628 W/m² | - |
| 1788210063 | 38.89° C | 27% | 1014 hPa | 0 mm | - | 656 W/m² | - |
| 1788209762 | 39.44° C | 27% | 1014.1 hPa | 0 mm | - | 650 W/m² | - |
| 1788209469 | 40° C | 27% | 1014.1 hPa | 0 mm | - | 693 W/m² | - |
| 1788209153 | 38.33° C | 29% | 1014.4 hPa | 0 mm | - | 687 W/m² | - |
| 1788208851 | 37.78° C | 30% | 1014.1 hPa | 0 mm | - | 684 W/m² | - |
| 1788208547 | 38.89° C | 29% | 1014.1 hPa | 0 mm | - | 680 W/m² | - |
| 1788208246 | 39.44° C | 28% | 1014.6 hPa | 0 mm | - | 686 W/m² | - |
| 1788207945 | 39.44° C | 29% | 1014.5 hPa | 0 mm | - | 667 W/m² | - |
| 1788207645 | 37.78° C | 30% | 1014.5 hPa | 0 mm | - | 642 W/m² | - |
| 1788207344 | 38.89° C | 30% | 1014.6 hPa | 0 mm | - | 647 W/m² | - |
| 1788207039 | 38.33° C | 30% | 1014.4 hPa | 0 mm | - | 641 W/m² | - |
| 1788206735 | 38.89° C | 30% | 1014.8 hPa | 0 mm | - | 639 W/m² | - |
| 1788206434 | 38.33° C | 30% | 1014.9 hPa | 0 mm | - | 658 W/m² | - |
| 1788206130 | 37.22° C | 32% | 1014.8 hPa | 0 mm | - | 669 W/m² | - |
| 1788205825 | 37.78° C | 30% | 1015 hPa | 0 mm | - | 691 W/m² | - |
| 1788205514 | 38.33° C | 30% | 1015.2 hPa | 0 mm | - | 717 W/m² | - |
| 1788205209 | 37.78° C | 30% | 1015.1 hPa | 0 mm | - | 744 W/m² | - |
| 1788204904 | 37.78° C | 31% | 1015 hPa | 0 mm | - | 775 W/m² | - |
| 1788204599 | 37.78° C | 32% | 1015 hPa | 0 mm | - | 772 W/m² | - |
* Rain latest hour (hover to see other rain measurements)
** Current wind speed in m/s (hover to see current wind gust speed)